x

Freeport, Tx - 60 Nm South Of Freeport, Tx (42019) Wave Buoy

4:50am - Wed 1st Oct 2014 All times are CDT. -5 hours from GMT.

  • Sig Wave height 2.0ft
  • Swell Direction
  • Peak Period 3s
  • Average Period 3s
  • Wind
    16mph, 18mph gusts
  • Sea Temp 83°f
  • Air Temp 83°f
  • Sea Pressure 1008.7mb
  • Freeport, Tx - 60 Nm South Of Freeport, Tx
  • Freeport, Tx - 60 Nm South Of Freeport, Tx

More Historic Weather Station data

Upgrade to MSW Pro to gain access to the past 30 days of data for over 8000 Wavebouys and Weather Stations around the globe.

Join Pro

Comparision Forecast

View Surf forecast
   
Wed 10/01 4:50am 2ft 3s 3s 16 18 mph 1008.7mb 83f 83f
3:50am 1.6ft 3s 3s 16 18 mph 1008.7mb 83f 83f
2:50am 1.6ft 6s 4s 11 13 mph 1009.1mb 83f 83f
1:50am 1.6ft 6s 4s 11 13 mph 1009.1mb 83f 83f
12:50am 1.3ft 6s 4s 11
mph
1009.2mb 83f 83f
Tue 09/30 11:50pm 1.3ft 7s 4s 11
mph
1009mb 83f 83f
10:50pm 1.3ft 6s 4s 9 11 mph 1009.1mb 84f 82f
9:50pm 1.3ft 7s 4s 9 11 mph 1009.1mb 84f 82f
8:50pm 1.3ft 6s 4s 9
mph
1008.9mb 84f 83f
7:50pm 1.3ft 6s 4s 9 11 mph 1008.7mb 84f 83f
6:50pm 1.3ft 5s 4s 9 11 mph 1008.5mb 84f 82f
5:50pm 1.6ft 5s 4s 7 9 mph 1008.5mb 85f 83f
4:50pm 1.6ft 6s 4s 4 7 mph 1008.6mb 85f 83f
3:50pm 1.6ft 6s 4s 7 9 mph 1008.8mb 85f 82f
2:50pm 1.6ft 6s 4s 4 9 mph 1009.4mb 85f 83f
1:50pm 1.6ft 6s 4s 7 9 mph 1010mb 85f 82f
12:50pm 1.6ft 6s 4s 7
mph
1010.7mb 84f 83f
11:50am 1.6ft 6s 4s 7
mph
1011.2mb 84f 82f
10:50am 1.6ft 6s 4s 7
mph
1011.4mb 83f 83f
9:50am 1.6ft 6s 4s 7 9 mph 1011mb 83f 82f
8:50am 2ft 7s 4s 7
mph
1010.9mb 83f 82f
7:50am 2ft 7s 4s 7 9 mph 1010.5mb 83f 82f
6:50am 2ft 6s 4s 7 9 mph 1010.4mb 83f 82f
5:50am 2ft 7s 4s 7 9 mph 1010.3mb 83f 81f
4:50am 2.5ft 4s 4s 9 11 mph 1010.1mb 83f 81f
3:50am 2.5ft 4s 4s 11 13 mph 1010.1mb 83f 81f
2:50am 2.5ft 6s 4s 11 13 mph 1010.4mb 83f 81f
1:50am 2.5ft 6s 4s 9 11 mph 1010.7mb 83f 81f
12:50am 2.5ft 4s 4s 9 11 mph 1011.1mb 83f 81f
Mon 09/29 11:50pm 2.5ft 5s 4s 11 13 mph 1011.4mb 83f 81f
10:50pm 3ft 4s 4s 11 13 mph 1011.5mb 83f 81f
9:50pm 3ft 4s 4s 13 18 mph 1011.3mb 83f 81f
8:50pm 3ft 5s 4s 13 18 mph 1011mb 83f 81f
7:50pm 3.5ft 5s 4s 16 18 mph 1011mb 83f 80f
6:50pm 3.5ft 5s 4s 18 20 mph 1010.8mb 83f 80f
5:50pm 3.5ft 5s 4s 18 22 mph 1010.7mb 83f 81f
4:50pm 3ft 4s 4s 18 22 mph 1010.7mb 83f 81f
3:50pm 3ft 4s 4s 18 20 mph 1011mb 83f 79f
2:50pm 2.5ft 4s 4s 18 20 mph 1011.2mb 83f 79f
1:50pm 2.5ft 5s 4s 11 16 mph 1011.8mb 83f 82f
12:50pm 2.5ft 5s 4s 16
mph
1012.4mb 83f 80f
11:50am 2.5ft 5s 4s 18 22 mph 1012.9mb 83f 80f
10:50am 2.5ft 4s 4s 13 16 mph 1013mb 83f 80f
9:50am 2.5ft 5s 4s 13 18 mph 1012.7mb 83f 82f
8:50am 2.5ft 7s 4s 16 20 mph 1012.4mb 83f 79f
7:50am 3ft 6s 4s 13 16 mph 1012mb 83f 81f
6:50am 3ft 4s 4s 13 16 mph 1011.6mb 83f 81f
5:50am 3ft 5s 4s 13 16 mph 1011.3mb 83f 80f
4:50am 3ft 5s 4s 13 16 mph 1011.4mb 83f 81f
3:50am 3ft 4s 4s 13 16 mph 1011.3mb 83f 80f
2:50am 3.5ft 6s 4s 16 18 mph 1011.7mb 83f 80f
1:50am 3.5ft 7s 4s 18 22 mph 1011.9mb 83f 78f
12:50am 3.5ft 6s 4s 16 20 mph 1012.1mb 83f 81f
Sun 09/28 11:50pm 3.5ft 6s 4s 18 20 mph 1012.3mb 83f 80f
10:50pm 3.5ft 6s 4s 16 18 mph 1012.6mb 83f 80f
9:50pm 3.5ft 5s 4s 13 18 mph 1012.7mb 83f 80f
8:50pm 3.5ft 6s 4s 13 16 mph 1012.3mb 83f 81f
7:50pm 3.5ft 6s 4s 16 18 mph 1012mb 83f 81f
6:50pm 3.5ft 6s 4s 16 18 mph 1011.6mb 83f 80f
5:50pm 4ft 6s 5s 13 16 mph 1011.6mb 83f 79f
4:50pm 4ft 6s 4s 16 20 mph 1011.6mb 83f 78f
3:50pm 4ft 5s 4s 20 25 mph 1012.1mb 83f 77f
2:50pm 4ft 6s 4s 20 25 mph 1011.7mb 83f 78f
1:50pm 3.5ft 6s 5s 13 18 mph 1012.7mb 83f 79f
12:50pm 3.5ft 6s 5s 11 13 mph 1013.5mb 83f 81f
11:50am 3.5ft 7s 4s 13 16 mph 1014mb 83f 80f
10:50am 4ft 7s 5s 16 18 mph 1013.4mb 83f 80f
9:50am 4ft 7s 4s 18 20 mph 1013.3mb 83f 80f
8:50am 4ft 6s 4s 16 20 mph 1013.1mb 83f 79f
7:50am 4.5ft 7s 5s 18 20 mph 1012.7mb 83f 78f
6:50am 4.5ft 7s 5s 18 20 mph 1012.5mb 83f 77f
5:50am 4.5ft 7s 5s 18 22 mph 1012.4mb 83f 78f
4:50am 4.5ft 7s 5s 13 16 mph 1012.2mb 83f 77f
3:50am 4.5ft 7s 5s 22 29 mph 1012.4mb 84f 76f
2:50am 5ft 7s 5s 18 22 mph 1012.3mb 84f 80f
1:50am 5ft 7s 5s 22 27 mph 1012.5mb 84f 80f
12:50am 5ft 8s 5s 18 22 mph 1012.6mb 84f 79f
Sat 09/27 11:50pm 6ft 6s 5s 20 22 mph 1013.3mb 84f 79f
10:50pm 6.5ft 6s 5s 25 27 mph 1013.4mb 84f 79f
9:50pm 6ft 8s 5s 22 27 mph 1013.5mb 84f 78f
8:50pm 6ft 6s 5s 22 27 mph 1012.8mb 84f 77f
7:50pm 6ft 8s 5s 27 29 mph 1012.4mb 84f 78f
6:50pm 6ft 8s 5s 22 27 mph 1012.4mb 84f 80f
5:50pm 6ft 8s 5s 20 25 mph 1012.3mb 84f 80f
4:50pm 6.5ft 8s 5s 20 25 mph 1012.1mb 84f 81f
3:50pm 6ft 8s 5s 18 22 mph 1012.5mb 84f 81f
2:50pm 6ft 8s 5s 18 22 mph 1012.6mb 84f 81f
1:50pm 6ft 8s 5s 20 25 mph 1013.2mb 84f 81f
12:50pm 6ft 8s 5s 20 27 mph 1013.9mb 84f 81f
11:50am 6ft 8s 5s 22 27 mph 1014.2mb 84f 81f
10:50am 6ft 8s 5s 22 27 mph 1014.4mb 84f 81f